星链-30176 (STARLINK-30176 )

导读

STARLINK-30176是美国太空探索技术公司星链计划的卫星,于2023年7月28日发射升空,归属美国所有,属于低轨卫星星座的组成部分,旨在为全球范围内用户提供高速互联网接入服务,进一步扩充星链星座的通信覆盖能力与网络容量,推动星链星座的部署进程。

Basic Information
目录编号:
57477
目录名称:
STARLINK-30176
国际标识:
2023-107W
轨道中心:
EARTH
卫星名称:
星链-30176
卫星全名:
星链-30176 (STARLINK-30176 )
卫星状态:
在轨 (已飞行1141 天)
发射日期:
2023-07-28 UTC
国别 :
美国 (US)
星等 :
--
This satellite is enrolled in the Space Conjunction Data Service (SCDS) and the current flight risk assessment level is: High Risk
Orbit Information
数据来源 国际轨道数据
星历时间: 2026-09-09T09:22:37+0800
2天前
查看轨道信息
半长轴: 6861.107km
偏心率: 0.0001076
轨道倾角: 43.004°
近地点辐角 261.433°
升交点赤经 20.292°
平近点角 98.640°
近地点: 482.231km
远地点: 483.709km
周期: 94.265分钟
每日圈数: 15.276067
Detailed Information
固有亮度:
5
最大亮度:
0.3
卫星平台:
Starlink v2.0 mini
覆盖范围:
全球
运营商:
太空探索技术公司
运营商所在国:
美国
制造商(研发单位):
太空探索技术公司
制造商所在国:
美国
使用方式:
暂无
Satellite Introduction
星链(Starlink)计划是由太空探索技术公司(SpaceX)提出的一个巨型低轨卫星互联网星座项目,计划在2019年至2024年间在太空搭建由约1.2万颗卫星组成的“星链”网络,其中1584颗将部署在地球上空550千米处的近地轨道,并从2020年开始工作。该卫星仍在工作。
2D Orbit Map
3D Orbit Map
Orbit Altitude Analysis Chart
Orbit Inclination Analysis Chart
Orbit Comprehensive Analysis Chart
View Comprehensive Chart
Conjunction Data List
Event ID Objects TCA Miss Dist (km) Collision Risk Probability Collision Risk Index (CRI) Action
CDM_260913-022305-747706-800021
2026-09-13T
02:23:50+0000
0.217 km
中距离
5.436015E-4 高风险 0.9
CDM_260912-200505-604005-747721
2026-09-12T
20:05:19+0000
0.242 km
中距离
4.305619E-4 高风险 0.88
CDM_260912-003005-747706-800021
2026-09-12T
00:30:21+0000
0.365 km
远距离
2.436893E-4 高风险 0.83
CDM_260913-021205-747706-256821
2026-09-13T
02:12:12+0000
0.369 km
远距离
1.880372E-4 高风险 0.8
CDM_260911-105405-747705-935122
2026-09-11T
10:54:55+0000
0.445 km
远距离
1.639527E-4 高风险 0.79
CDM_260912-034605-705805-747721
2026-09-12T
03:46:59+0000
0.515 km
远距离
1.477635E-4 高风险 0.78
CDM_260913-004905-747706-800021
2026-09-13T
00:49:41+0000
0.650 km
远距离
5.939857E-5 中风险 0.7
CDM_260912-184105-705805-747721
2026-09-12T
18:41:26+0000
0.720 km
远距离
5.879581E-5 中风险 0.7
CDM_260911-210605-747705-935122
2026-09-11T
21:06:55+0000
0.739 km
远距离
4.116855E-5 中风险 0.67
CDM_260911-083505-747706-652021
2026-09-11T
08:35:44+0000
0.738 km
远距离
3.5186E-5 中风险 0.66
Miss Distance Evolution Trend with All Objects
Collision Probability Evolution Trend with All Objects